Location: *
(26.3740°N, 146.7320°E)
Time: 10:22:55
(UTC+00:00)

Daily predictions for brighter satellites

Satellite Brightness Start Highest point End
(mag) Time Altitude Azimuth Time Altitude Azimuth Time Altitude Azimuth
Milstar 3 Cent rocket 4.0 17:37:14 54° S 17:38:52 59° SSE 17:56:30 10° ENE
Atlas Centaur 2 3.3 17:49:19 56° NE 17:49:19 56° NE 17:56:14 10° E
Cosmos 2123 Rocket 4.3 18:05:25 10° S 18:11:31 63° E 18:17:41 10° NNE
Skynet4D Del rocket 4.4 18:22:23 68° W 18:23:38 88° N 18:32:05 10° E
CZ-4B R/B 3.2 18:19:23 10° NNE 18:25:04 83° ESE 18:30:41 10° SSW
Hubble Space Telescope 2.1 18:32:41 36° ENE 18:32:41 36° ENE 18:35:15 10° ENE
IRS-1C Rocket 4.1 18:26:05 10° NNE 18:31:20 80° ESE 18:36:35 10° S
Cosmos 2278 Rocket 2.7 18:35:07 44° SSW 18:35:07 44° SSW 18:39:09 10° S
Cosmos 2061 Rocket 3.9 18:33:29 66° NW 18:34:13 72° W 18:40:34 10° S
ASTRO E2 3.7 18:40:04 41° SE 18:40:04 41° SE 18:42:50 10° ESE
Cosmos 1486 Rocket 4.0 18:38:23 63° N 18:39:15 85° ENE 18:44:35 10° SSE
Cosmos 2016 Rocket 3.8 18:40:22 37° NNW 18:42:55 76° W 18:48:59 10° S
GPS 2-17 Rocket1 4.2 18:47:07 31° SSW 18:47:53 33° S 18:52:00 10° ESE
Lacrosse 5 rocket 4.0 18:58:24 10° N 18:58:24 10° N 18:58:28 10° N
USA 32 4.1 18:50:23 10° S 18:55:35 78° E 19:00:48 10° N
ISS -2.9 19:02:09 40° S 19:02:09 40° S 19:04:28 10° SSE
Cosmos 1943 4.3 18:57:18 10° S 19:02:42 47° ESE 19:08:07 10° NNE
ATLAS 5 CENTAUR R/B 1.9 19:06:31 10° SSW 19:10:55 70° ESE 19:15:35 10° NNE
Cosmos 1864 Rocket 4.4 19:05:36 10° NNW 19:11:44 62° W 19:17:48 10° S
Okean-O 2.7 19:09:08 10° NNE 19:13:35 81° ESE 19:18:00 10° S
Cosmos 1869 Rocket 3.9 19:13:13 10° S 19:17:31 66° E 19:21:51 10° NNE
Cosmos 1703 Rocket 4.5 19:16:27 10° N 19:20:40 49° E 19:24:50 10° SSE
Cosmos 1408 2.5 19:18:29 10° S 19:22:12 71° W 19:25:55 10° N
Meteor 2-3 Rocket 4.3 19:21:49 10° SW 19:27:03 35° W 19:32:15 10° NNW
Cosmos 1782 3.8 19:23:47 10° N 19:27:37 47° E 19:31:25 10° SSE
USA 215 3.5 19:21:53 10° NE 19:28:24 73° SE 19:34:54 10° SSW
MTI 3.7 19:27:50 10° SSE 19:31:01 87° ENE 19:34:11 10° N
Cosmos 2233 Rocket 3.9 19:25:31 10° N 19:31:35 70° W 19:37:40 10° S
COSMO-SKYMED 1 2.8 19:30:20 10° SSE 19:34:39 71° ENE 19:38:57 10° N
Atlas Centaur 2 3.1 19:31:57 19° WNW 19:38:06 87° SSW 19:46:43 10° ESE
CZ-2C R/B 4.0 19:34:04 10° S 19:38:24 45° W 19:42:40 10° NNW
Cosmos 2084 Rocket 3.5 19:37:36 10° NNW 19:41:27 65° ENE 19:45:20 10° SE
Delta 198 3.5 19:39:11 19° W 19:41:41 58° S 19:45:49 10° ESE
Cosmos 1603 4.3 19:38:01 10° SW 19:43:00 32° WNW 19:48:02 10° N
Cosmos 405 Rocket 4.2 19:39:40 10° N 19:43:10 38° E 19:46:43 10° SSE
Meteor 1-28 Rocket 3.9 19:40:45 10° SSW 19:44:09 32° W 19:47:33 10° NNW
CZ-2C R/B 2.4 19:47:00 10° N 19:52:08 81° WNW 19:57:07 10° SSW
Cosmos 1862 3.2 19:49:04 10° S 19:53:00 81° W 19:56:58 10° N
EO 1 Del DPAF 3.3 19:50:02 10° S 19:53:47 57° W 19:57:33 10° NNW
GPS 2-15 Rocket1 4.3 19:52:04 10° WSW 19:56:22 36° S 20:00:37 10° ESE
Lacrosse 4 Rocket 2.1 19:52:53 10° S 19:57:14 63° ESE 20:01:32 10° NNE
Ariane Rocket 4.2 20:00:32 10° NNE 20:05:24 48° E 20:10:15 10° S
Thor Agena Rocket 4.5 20:01:22 10° SSE 20:06:17 51° ENE 20:11:10 10° N
Cosmos 968 Rocket 3.5 20:04:18 10° NNW 20:09:31 67° WSW 20:14:42 10° S
Cosmos 2369 Rocket 2.9 20:05:23 10° N 20:10:52 55° ENE 20:16:20 10° SSE
Delta 2 Rocket 3.9 20:07:19 10° NW 20:11:22 55° NNE 20:15:59 10° E
Hubble Space Telescope 0.8 20:08:23 10° WNW 20:12:31 73° N 20:16:38 10° E
IDEFIX/ARIANE 42P 3.2 20:10:58 10° N 20:15:33 33° WNW 20:20:07 10° SW
